Tracking 25693 objects as of 1-Jul-2022
HD Live streaming from Space Station
objects crossing your sky now

STARLINK-3640

Track STARLINK-3640 now!
10-day predictions
STARLINK-3640 is classified as:


NORAD ID: 51988
Int'l Code: 2022-025AJ
Perigee: 545.9 km
Apogee: 548.0 km
Inclination: 53.2 °
Period: 95.4 minutes
Semi major axis: 6917 km
RCS: Unknown
Launch date: March 9, 2022
Source: United States (US)
Launch site: AIR FORCE EASTERN TEST RANGE (AFETR)
aabbcc
Your satellite tracking list
Your tracking list is empty




NASA's NSSDC Master Catalog

Two Line Element Set (TLE):
1 51988U 22025AJ  22181.91667824  .00025695  00000-0  16274-2 0  9998
2 51988  53.2190 329.4994 0001538  57.9654 340.9344 15.08822908  1300
Source of the keplerian elements: AFSPC